User: anonymous   Login
Location: Prague
(50.0830°N, 14.4670°E)
Time: 02:46:07
(UTC+01:00)
Language:

DELFI C3 - Orbit

View from above orbital plane
View from above orbital plane
View from above satellite
View from above satellite

Ground track
Ground track

The orbit data is extracted from the following two-line orbital elements,

1 32789U 08021G   21332.49091877  .00004110  00000-0  25682-3 0  9998
2 32789  97.3619   1.4916 0009932 302.1073  57.9192 15.09949690741575
Epoch (UTC): 28 November 2021 11:46:55
Eccentricity: 0.0009932
inclination: 97.3619°
perigee height: 529 km
apogee height: 543 km
right ascension of ascending node: 1.4916°
argument of perigee: 302.1073°
revolutions per day: 15.09949690
mean anomaly at epoch: 57.9192°
orbit number at epoch: 74157

The dashed part of the orbit path shows where the satellite is in the earth's shadow,  

DLR